Погода в Калиновке

Россия / Хабаровский край     51°32′41″N   139°42′27″E
темп.,
°C
ветер,
м/с
пор.,
м/с
влажн.,
%
обл.,
%
осадки,
мм/ч
давл.,
гПа
погр.,
м
25 сентября, сб
сб2501:00+7юз22750 0.0 102612
04:00+6юз11750 0.0 102612
07:00+6юз11750 0.0 102714
10:00+13зюз35560 0.0 1026544
13:00+17зюз34480 0.0 1025870
16:00+18зюз23475 0.0 10241028
19:00+11ююз22715 0.0 102412
22:00+10ююз117471 0.0 102512
26 сентября, вс
вс2601:00+9ююз2278100 0.0 102413
04:00+9ююз2280100 0.0 102413
07:00+8ююз1180100 0.0 102413
10:00+14зюз34625 0.0 1023492
13:00+18з335074 0.0 1022988
16:00+18сз124872 0.0 10211174
19:00+14ююв1166100 0.0 102011
22:00+12ю2276100 0.0 102017
27 сентября, пн
пн2701:00+10ююз117956 0.0 102011
04:00+9ююз1183100 0.0 101912
07:00+9ю1182100 0.0 101811
10:00+16ю115889 0.0 1017348
13:00+19ююв024697 0.0 10161050
16:00+20св1344100 0.0 10141149
19:00+13юв1175100 0.0 101411
22:00+11ююв2281100 0.0 101435
28 сентября, вт
вт2801:00+11ююв226798 0.0 101234
04:00+11ю2266100 0.0 101221
07:00+11ююв2286100 0.7 101150
10:00+15зюз5108390 0.7 1012945
13:00+18з710646 0.0 10121040
16:00+18зюз6965100 0.0 1013942
19:00+13юз1186100 0.0 101411
22:00+12ююв22877 0.0 101328
29 сентября, ср
ср2901:00+10ю228877 0.0 101324
04:00+9ююв228777 0.0 101223
07:00+9ююв22885 0.0 101127
10:00+17ю23605 0.0 1010328
13:00+22з375068 0.0 10081676
16:00+20з246194 0.0 1007385
19:00+16юв2277100 0.0 100614
22:00+13юв2286100 0.0 100442